Wind_Speed
13 14 16 18 20 18 16 12 8 5 3 3 1 2 3 3 3 8 4 7 8 4 6 7 2 1 3 1 4 6 2 3 3 3 3 4 3 4 4 9 10 6 4 6 10 11 14 5 8 12 9 12 15 15
12 12 15 17 18 16 14 12 6 3 2 2 2 1 0 2 2 7 5 4 6 6 5 9 4 0 3 3 4 2 2 4 3 1 1 3 2 3 4 4 12 2 5 4 4 4 12 7 6 9 10 12 15 15
12 11 14 16 17 14 12 11 6 3 3 3 4 3 2 2 3 5 8 9 7 7 4 3 4 5 5 4 2 2 3 3 3 2 3 2 3 1 2 2 4 10 12 5 10 3 12 12 10 11 11 12 16 16
11 9 12 15 16 13 11 10 6 3 4 4 4 4 3 4 4 6 8 11 7 7 4 5 10 5 7 4 4 3 3 2 9 4 1 2 1 2 2 4 3 5 9 9 5 6 14 4 13 14 14 15 15 20
11 8 11 13 14 13 10 8 6 4 4 3 6 6 5 5 6 9 11 8 7 4 5 8 7 10 11 12 10 8 2 7 4 3 4 3 3 4 3 2 3 3 1 2 3 10 8 12 11 13 14 15 18 14
9 7 10 12 13 13 11 8 7 6 5 4 4 5 6 6 6 5 2 5 4 5 3 4 6 7 7 10 12 11 10 8 2 5 5 3 4 4 2 2 4 8 6 8 3 9 8 9 11 9 12 13 11 11
8 7 9 11 12 13 12 9 8 7 7 6 5 5 6 6 6 6 4 2 6 4 3 4 2 3 8 7 10 8 7 6 3 5 1 5 5 4 2 2 5 5 3 9 5 2 5 6 6 12 10 16 11 13
7 7 8 10 11 12 12 10 8 7 8 8 6 6 7 7 10 9 6 12 4 4 5 4 2 3 11 3 3 4 4 4 5 4 4 2 3 2 2 6 8 7 2 5 2 6 2 0 6 10 12 13 9 9
7 7 8 10 11 13 13 10 7 6 7 7 5 5 4 4 5 1 4 6 6 6 3 4 6 3 7 4 4 3 3 4 4 4 3 4 3 3 7 4 8 9 3 5 5 8 4 0 4 9 12 12 10 10
6 7 9 10 12 13 13 9 5 4 3 4 3 6 3 3 5 2 0 3 5 5 5 5 9 6 3 4 3 3 5 5 3 5 3 4 4 8 6 3 2 1 5 6 6 6 8 11 10 7 11 10 11 10
6 8 10 12 14 15 13 8 4 3 4 3 6 3 5 3 3 3 4 5 5 5 6 7 9 8 5 4 6 4 3 3 3 5 4 5 2 6 7 8 4 6 6 3 3 7 3 6 7 6 7 10 9 9
6 9 12 15 18 18 13 8 8 8 5 7 11 12 6 4 4 6 5 5 4 3 3 1 7 6 7 6 1 3 3 3 1 3 1 0 5 5 4 3 8 6 9 9 6 1 4 6 4 4 6 10 6 3
7 10 13 17 17 8 7 9 6 7 13 8 5 3 4 4 2 5 4 4 5 7 2 6 6 1 2 2 5 2 2 1 2 2 1 1 5 4 4 3 1 5 9 3 6 4 1 2 6 3 4 7 7 7
7 12 13 13 2 7 5 2 3 4 3 4 5 4 5 5 3 1 8 4 4 5 9 5 3 2 2 3 4 3 2 3 4 1 2 6 6 8 2 5 6 5 8 9 5 1 2 3 6 7 10 8 9 6
10 13 16 7 5 1 6 11 10 7 5 4 3 3 7 5 3 7 10 10 3 6 8 8 6 4 3 2 2 3 2 2 5 3 2 3 8 5 3 2 2 7 4 8 7 5 3 5 6 9 10 8 10 7
12 11 2 3 4 11 19 6 10 6 5 4 5 8 10 5 7 5 9 6 11 7 6 3 4 3 2 3 4 5 4 4 0 1 3 3 2 4 5 5 6 10 2 7 14 8 1 4 5 7 7 6 6 6
10 1 2 6 12 14 8 4 8 5 4 4 3 3 5 2 3 2 8 9 14 7 7 4 5 5 4 3 4 4 4 4 3 4 0 1 1 3 5 8 7 12 2 5 7 5 13 2 2 4 4 7 7 6
2 1 10 16 10 5 3 6 5 5 8 6 5 8 4 6 7 6 4 5 7 7 7 5 4 4 4 5 4 3 3 1 5 4 0 2 1 3 6 8 7 9 10 3 11 7 6 5 6 8 7 4 5 13
13 15 22 20 5 3 4 8 6 4 2 2 5 2 3 2 3 3 4 6 6 6 3 2 2 3 2 4 5 3 4 5 6 6 4 2 4 14 5 8 10 11 4 9 3 7 9 4 7 9 9 12 13 13
18 8 4 2 9 5 5 3 7 5 3 4 3 6 3 7 9 5 3 2 4 3 4 4 4 4 2 5 5 3 4 6 6 7 5 9 5 12 7 7 12 15 11 4 8 7 7 1 2 5 8 7 7 10
3 3 1 5 6 8 5 4 3 5 6 4 6 2 1 4 1 4 1 6 7 5 6 5 4 4 9 12 13 12 11 12 7 6 7 4 5 14 9 2 5 11 21 20 21 13 17 13 6 9 8 15 9 11
0 1 3 6 5 7 6 9 4 7 7 4 8 5 5 6 6 9 9 3 4 4 4 4 6 6 5 4 5 7 7 11 6 6 10 7 6 4 10 5 2 7 12 9 9 17 14 9 11 10 8 5 9 10
5 4 5 7 5 1 6 10 5 5 4 2 6 0 2 3 6 5 2 2 1 1 5 4 3 8 10 12 2 6 10 2 3 4 3 5 9 11 11 15 15 7 6 8 15 17 13 14 6 3 12 5 9 7
4 4 4 4 8 4 5 6 5 3 5 4 4 3 0 3 4 4 3 6 3 4 6 7 11 4 8 3 4 2 13 11 4 6 5 18 8 14 11 12 12 7 8 7 14 11 10 5 5 10 6 8 9 8
2 5 3 5 4 6 6 11 4 6 1 5 2 4 2 1 2 2 4 5 7 7 4 3 7 7 7 7 9 11 14 12 9 8 9 10 9 7 4 2 7 12 11 8 7 11 12 18 6 11 6 7 9 8
4 6 5 6 7 4 2 5 10 10 4 2 5 5 3 1 2 2 3 5 5 5 5 5 5 6 6 9 7 10 12 13 19 12 12 13 12 13 10 8 7 8 12 10 14 11 6 14 15 3 11 10 9 7
4 7 6 6 7 5 3 9 7 1 2 4 5 3 1 5 2 2 4 5 5 6 6 7 8 8 6 7 7 9 10 10 13 12 11 12 14 9 10 7 8 10 10 14 18 11 5 1 5 6 11 7 8 10
8 6 7 9 7 7 3 3 3 2 4 4 4 4 4 2 4 3 5 8 8 7 6 6 6 6 8 7 6 5 4 8 9 8 10 10 11 10 8 10 7 8 10 14 16 14 11 9 5 10 8 7 8 6
9 9 9 7 8 4 5 7 3 4 5 4 6 5 2 3 6 6 8 7 5 2 3 4 3 5 8 8 6 6 5 6 4 5 4 6 7 10 8 5 4 5 9 11 9 6 8 8 8 9 6 5 4 5
10 10 10 6 9 3 4 3 8 7 3 5 3 5 6 7 9 8 8 5 4 3 5 4 3 2 3 6 7 6 7 7 8 7 6 7 9 9 7 6 5 6 6 6 9 8 4 2 4 3 6 8 7 8
11 9 7 8 6 6 6 17 17 2 4 3 5 3 6 6 6 3 4 5 4 4 5 4 5 3 3 2 5 6 8 6 6 6 6 7 9 9 5 4 3 4 3 4 4 5 5 4 5 6 6 7 6 6
5 6 8 1 3 4 14 9 4 4 3 2 5 6 8 3 3 5 8 7 6 6 4 1 5 6 4 4 5 8 10 9 8 8 8 7 7 6 4 3 2 4 3 2 3 5 4 4 5 4 4 4 4 5
10 6 6 4 2 3 6 8 1 4 5 2 4 7 4 3 3 2 8 11 9 4 8 7 8 9 8 8 9 8 9 8 7 6 6 6 6 3 5 5 4 2 2 0 2 3 3 3 3 4 4 5 6 6
Wind_Direction
295 310 323 333 335 338 342 345 345 358 8 12 21 92 82 85 24 3 35 15 354 347 9 51 55 35 169 232 311 14 255 32 13 6 333 3 330 4 296 299 293 301 234 191 240 248 258 66 240 245 347 328 323 329
290 306 320 330 333 335 339 343 340 327 270 303 289 230 125 114 336 346 294 32 348 274 345 351 40 21 181 208 318 13 52 26 51 65 46 308 324 309 323 303 335 335 350 303 227 290 50 19 336 319 312 297 303 315
281 300 317 326 330 331 334 337 331 295 274 272 275 236 226 252 280 296 325 337 312 271 263 233 250 223 213 214 116 283 112 92 135 131 140 201 258 142 318 335 291 339 17 342 343 68 349 314 342 351 326 314 306 299
269 290 313 323 326 327 327 330 317 313 287 253 242 239 269 293 293 293 303 323 325 298 285 230 231 243 241 192 206 217 223 126 150 183 187 99 291 80 291 307 299 340 321 340 268 309 328 30 341 328 318 319 312 308
258 285 310 320 324 324 321 320 297 293 282 267 247 251 269 288 296 299 292 286 333 341 308 309 248 233 219 231 213 222 191 238 169 191 212 169 183 199 199 202 249 282 226 312 301 314 306 294 319 335 325 320 306 294
248 283 308 318 324 321 316 310 297 267 266 263 270 262 265 281 303 303 287 102 52 4 294 286 169 193 202 218 243 243 214 244 271 268 197 138 115 197 251 239 269 262 145 167 264 296 298 305 308 323 313 314 326 326
241 278 304 316 323 323 316 306 288 259 254 256 264 269 269 268 263 269 308 7 338 329 257 273 227 194 202 200 219 238 245 259 212 255 233 163 180 208 223 233 271 307 123 191 169 136 308 0 333 330 324 329 336 325
239 276 301 316 323 326 322 306 279 274 247 250 253 278 283 282 281 270 263 235 227 252 254 265 218 170 185 212 226 210 204 210 235 218 257 147 118 48 240 235 216 261 309 89 115 151 140 124 9 359 358 350 351 352
242 277 301 315 322 325 329 313 272 271 250 243 250 271 280 250 231 143 218 254 209 241 276 254 281 285 176 225 213 167 247 207 223 212 214 134 121 220 221 304 157 197 345 36 68 20 102 208 88 51 13 7 8 5
245 280 301 312 317 319 325 314 262 267 243 218 220 215 216 208 210 295 106 201 202 206 229 247 253 257 230 184 238 188 196 212 217 222 181 146 225 220 219 234 117 89 45 9 7 26 9 11 42 90 61 24 4 0
254 283 302 308 310 309 309 293 226 188 188 219 217 241 91 176 231 226 248 222 179 222 207 243 252 288 221 164 212 183 240 246 205 192 207 185 178 164 169 159 174 147 151 167 315 60 46 7 11 55 111 97 60 4
267 293 307 310 308 298 281 244 198 190 281 311 309 287 214 215 229 245 228 218 208 251 181 83 8 4 4 344 77 228 239 277 250 300 244 11 139 164 187 161 159 179 179 181 191 162 350 356 3 47 68 138 143 161
282 305 315 324 325 295 214 191 207 252 290 273 227 236 224 229 319 236 329 328 30 317 317 339 352 124 265 251 251 127 54 320 270 254 128 282 100 325 181 138 349 153 176 212 152 173 145 339 18 51 62 77 80 47
299 308 317 329 49 91 111 164 278 277 247 247 203 266 245 220 268 239 291 348 214 229 284 318 7 307 322 24 22 278 209 174 186 78 39 8 49 253 29 12 20 350 357 129 180 103 58 336 72 33 32 93 85 60
304 309 311 269 199 210 310 301 288 204 271 257 230 225 246 308 276 7 11 332 330 338 353 336 332 36 64 100 218 291 278 341 39 46 305 231 275 54 68 5 310 302 309 329 107 135 31 18 31 52 26 40 54 97
313 323 349 171 259 298 307 288 163 206 242 240 240 267 311 277 266 2 41 350 334 25 336 9 3 338 359 338 349 358 9 24 212 119 49 93 222 347 359 350 330 318 74 19 315 46 293 79 11 40 29 14 54 34
319 249 26 329 327 324 166 187 195 221 256 245 244 43 64 331 193 344 37 14 343 358 25 38 340 359 340 338 357 16 357 350 345 293 349 102 4 337 334 319 341 323 311 152 353 349 325 10 21 358 26 45 32 20
311 329 313 306 326 272 232 219 253 240 229 239 230 279 343 19 40 21 11 21 356 20 40 24 348 6 351 4 335 322 339 337 347 339 39 211 273 315 309 324 314 301 301 137 149 196 269 300 337 267 71 13 92 102
290 294 289 293 255 267 230 200 233 272 293 326 232 167 96 137 108 72 345 37 341 107 151 137 48 355 358 319 346 358 341 327 328 303 304 196 7 291 278 272 282 276 283 233 210 101 296 358 352 7 22 24 51 32
302 286 236 233 175 246 234 226 185 250 282 276 96 258 30 38 0 89 358 51 335 318 30 38 7 347 91 289 346 340 355 337 313 333 2 288 345 283 319 296 329 320 290 187 119 239 166 179 119 34 19 24 41 61
323 208 256 179 206 235 291 279 187 308 284 279 71 124 230 124 132 108 132 18 42 20 31 28 46 342 336 342 338 338 335 323 311 301 278 347 11 319 270 325 332 53 52 19 21 12 11 344 92 59 24 311 45 74
92 246 249 203 255 217 238 243 244 196 250 60 302 94 253 47 18 45 39 0 21 19 27 357 15 326 337 354 302 279 273 282 1 336 313 271 259 277 326 273 242 56 71 78 63 295 217 176 97 96 221 34 63 52
301 221 239 227 237 283 259 251 253 251 246 167 18 294 354 62 79 44 266 64 338 117 92 50 334 281 268 294 233 322 292 350 59 348 29 39 302 46 58 334 6 43 74 27 10 42 43 1 329 72 76 81 69 320
265 260 251 219 195 239 243 213 235 268 73 313 178 144 45 51 101 243 49 71 120 98 70 15 317 326 316 317 38 103 12 356 122 125 312 22 6 59 54 24 320 30 31 46 64 43 92 222 330 76 55 44 56 50
244 267 184 263 260 230 221 229 127 260 283 317 229 149 95 76 210 356 47 32 9 27 24 332 312 10 26 19 11 19 20 353 2 74 60 60 59 94 90 270 9 38 38 25 56 90 33 301 272 97 104 41 50 58
221 219 180 227 216 175 269 191 171 235 222 212 62 347 168 227 85 284 62 43 36 19 10 9 8 8 44 34 30 29 24 13 82 68 38 40 26 47 39 36 61 24 15 19 68 33 38 55 351 327 96 93 84 62
242 238 201 248 281 256 33 355 308 279 137 291 147 318 283 164 138 124 112 73 63 70 50 23 42 39 37 36 57 70 52 56 66 63 53 49 57 52 76 107 52 21 32 28 89 94 101 182 100 47 75 63 57 71
239 274 238 196 222 267 266 246 265 35 110 240 102 121 252 39 47 63 94 111 103 82 74 83 82 78 56 34 19 1 139 137 118 81 78 79 61 59 49 57 79 68 69 50 55 55 73 59 346 60 64 66 52 40
245 238 252 257 243 219 226 253 29 358 283 322 127 217 154 82 97 126 127 128 156 162 112 114 90 157 123 91 55 28 5 350 128 118 171 106 94 78 86 100 104 131 89 75 60 78 46 50 38 36 55 60 63 50
231 238 206 239 253 96 227 310 283 233 51 13 75 127 111 111 99 120 137 167 192 141 67 70 78 81 68 102 83 54 41 28 10 32 70 95 115 113 113 94 77 69 64 74 97 108 86 131 76 59 51 46 43 56
224 219 235 239 263 101 175 237 239 174 214 208 98 17 101 104 118 191 204 192 166 142 178 155 107 50 67 78 121 135 101 76 68 59 72 110 114 100 97 84 109 103 90 79 53 67 51 49 49 58 43 41 23 4
234 241 236 164 70 9 304 262 203 235 54 236 163 136 122 132 156 156 200 196 196 185 97 293 129 103 91 93 100 90 95 116 96 67 35 86 108 111 132 147 142 113 104 85 68 49 49 46 62 12 46 50 356 357
223 221 278 124 126 220 255 268 189 247 237 159 147 163 152 163 107 120 178 197 205 205 144 127 120 129 132 126 123 122 99 102 113 113 95 84 93 100 3 57 65 103 193 159 87 107 99 65 49 38 23 13 5 10
Height
857 855 853 849 846 843 840 837 836 834 832 831 830 828 827 827 826 824 824 822 821 815 810 807 810 810 814 815 814 807 810 811 815 820 818 816 815 817 819 796 789 788 788 788 786 788 790 768 768 776 776 772 770 771
855 853 852 848 844 841 839 836 835 834 833 831 831 830 829 829 828 827 825 823 823 820 811 812 811 812 812 812 810 807 816 815 819 828 833 832 827 825 824 810 797 797 805 794 788 775 777 783 785 782 781 780 776 774
851 851 850 846 844 840 838 836 834 834 833 832 832 830 830 830 830 829 827 824 821 816 812 813 809 809 806 808 809 810 813 815 822 821 825 834 832 834 823 820 819 803 803 796 799 779 795 788 784 786 787 784 780 776
847 846 846 844 841 839 837 835 834 833 832 831 832 831 830 831 830 829 829 825 823 821 812 803 805 806 806 805 808 809 809 813 817 820 817 826 831 833 828 827 821 813 810 813 806 800 798 788 793 792 788 784 778 774
843 843 843 841 839 837 835 834 833 832 832 831 830 830 830 830 830 829 828 825 824 826 815 802 796 798 800 803 804 805 806 808 810 815 814 817 822 826 824 830 822 812 818 818 811 810 808 801 794 790 786 781 778 772
840 840 840 839 837 835 834 832 831 831 831 831 830 830 830 830 829 830 824 824 825 825 822 803 791 793 796 799 800 799 801 802 800 798 797 798 807 814 815 819 811 808 808 814 817 812 806 802 797 793 790 783 777 773
837 837 837 836 835 833 831 830 829 829 829 830 830 829 829 829 829 828 824 825 824 825 823 804 791 786 790 793 796 798 797 796 796 799 795 795 802 807 807 817 806 802 799 806 809 806 805 800 798 793 787 782 776 773
835 835 835 834 833 831 829 828 827 827 828 828 828 829 828 827 826 822 820 822 824 823 819 800 786 788 788 788 791 786 790 793 789 790 786 786 790 802 814 800 804 800 793 797 799 800 800 800 797 793 788 783 777 772
833 833 833 832 831 829 827 825 824 825 825 826 827 827 828 825 820 817 818 819 819 821 810 787 783 788 778 779 780 785 783 792 783 786 783 788 803 813 798 788 795 797 794 792 793 792 791 793 793 791 789 783 779 775
831 832 831 830 828 827 825 824 823 824 824 826 827 824 818 816 815 816 817 816 815 810 805 789 769 773 772 777 777 780 780 780 783 778 771 789 796 785 785 784 785 787 790 791 789 791 789 787 787 791 789 788 784 779
829 829 828 826 825 824 823 822 822 823 824 824 817 814 813 814 814 813 805 799 789 788 778 769 760 762 751 770 772 766 774 770 779 769 769 773 778 777 775 780 783 786 789 790 792 790 790 788 786 786 788 787 787 785
827 826 825 823 821 819 818 819 820 822 820 818 817 812 810 809 804 800 786 771 769 775 758 768 774 768 764 756 765 764 769 769 771 762 764 778 770 771 774 773 776 780 782 786 787 789 788 787 785 785 784 786 788 786
824 823 821 819 815 811 813 816 818 820 818 816 813 807 803 795 807 787 790 787 788 790 762 761 767 770 773 768 766 761 777 781 779 766 779 772 774 776 772 773 772 774 778 779 781 783 785 786 784 781 781 782 784 783
821 820 818 817 816 815 816 817 818 818 818 806 801 814 790 784 779 783 775 770 783 776 759 755 763 767 765 775 789 785 776 781 776 781 786 787 785 785 774 773 772 773 774 778 779 779 781 781 782 780 778 778 779 780
818 817 814 814 815 815 816 816 815 817 815 797 787 804 778 765 765 765 772 769 754 755 752 754 752 761 780 787 786 780 773 770 781 795 792 792 785 779 779 778 778 776 774 773 772 776 779 778 777 778 778 775 776 776
816 813 811 813 814 814 812 810 811 814 804 792 784 777 766 766 764 757 771 781 757 754 755 754 765 771 775 776 779 777 778 787 791 783 781 786 786 782 779 777 775 773 773 776 774 773 776 774 775 776 776 774 773 773
813 812 812 813 812 810 809 811 809 803 792 780 776 770 782 776 785 769 765 766 762 757 762 771 780 782 776 780 781 782 785 785 782 780 778 781 781 780 779 777 775 774 772 776 776 777 774 773 773 775 773 773 774 773
812 811 811 811 810 810 809 807 797 785 783 773 777 770 760 764 767 766 766 769 766 768 772 782 782 783 786 789 788 787 783 779 777 776 776 778 778 779 778 776 775 774 771 773 777 780 777 775 775 770 770 771 770 773
811 810 808 806 808 808 796 795 791 782 775 776 763 759 762 764 764 767 770 771 771 772 774 778 784 788 788 785 783 781 780 779 778 777 774 776 780 777 775 774 772 771 771 772 770 774 780 776 773 770 770 771 773 774
804 803 803 803 805 804 789 781 780 774 767 761 765 757 758 762 769 767 772 771 770 769 772 780 785 782 785 783 778 779 781 778 778 779 780 774 773 773 772 773 770 769 767 766 771 777 774 775 773 776 776 777 774 777
802 802 802 802 804 801 788 772 774 771 761 754 760 777 756 763 767 767 768 766 769 773 778 776 780 782 782 781 783 783 783 782 780 779 777 773 775 775 772 770 771 776 776 780 781 777 773 775 776 777 781 781 776 779
802 801 801 800 796 785 780 771 767 769 764 772 770 765 768 760 765 768 781 776 776 777 779 780 780 781 779 781 785 783 779 778 778 778 778 775 772 770 769 766 765 767 773 780 781 784 780 776 780 783 786 781 781 783
800 799 796 788 785 783 782 767 763 759 758 756 767 758 762 759 768 777 774 771 774 773 777 780 780 780 780 778 777 778 776 773 776 776 777 778 777 778 779 782 775 774 775 779 782 780 780 780 783 780 784 785 786 787
798 796 783 777 778 783 766 761 756 754 765 774 753 761 759 763 774 770 770 768 770 771 774 778 776 774 772 769 771 773 774 772 773 776 778 780 778 781 786 786 782 779 779 780 782 785 785 789 785 787 788 786 788 788
800 795 790 796 770 765 762 761 768 764 761 762 753 756 756 757 766 767 769 769 769 771 774 776 772 771 772 774 775 776 778 776 773 775 780 779 783 785 787 787 787 783 782 782 784 789 792 791 791 789 791 789 790 791
802 779 786 761 756 759 774 767 779 771 747 748 752 761 752 758 765 770 766 769 771 774 775 776 775 774 776 779 780 781 782 779 778 781 784 783 784 784 786 788 788 788 786 786 786 789 788 789 794 789 790 793 795 795
791 766 757 752 748 743 750 766 743 740 747 750 749 757 752 765 766 768 763 768 772 776 778 778 779 779 780 781 782 785 786 785 786 789 789 788 789 789 791 793 793 795 792 791 792 795 792 794 795 795 795 795 795 797
764 751 753 749 750 745 749 748 745 747 752 763 756 775 779 757 761 760 763 770 774 778 779 780 782 783 785 785 784 783 783 784 786 787 789 791 792 793 794 796 797 798 798 798 797 797 798 799 799 796 797 797 798 798
758 750 748 753 748 746 745 745 744 749 743 735 757 764 750 753 758 763 768 771 773 772 774 776 779 779 781 785 786 786 784 782 782 785 787 787 791 795 796 796 796 797 798 800 801 801 802 801 801 800 800 800 800 801
750 741 744 745 746 768 767 762 757 740 736 739 742 748 751 755 760 764 768 770 771 770 774 776 778 778 779 781 786 788 788 787 786 784 783 787 792 795 797 798 798 798 799 799 800 802 802 803 803 802 802 802 803 804
734 733 736 736 738 751 758 754 743 737 737 736 740 744 746 755 764 767 768 769 770 772 773 774 777 779 780 781 783 786 789 793 793 793 792 792 793 797 798 799 800 800 800 801 801 801 802 802 802 803 804 805 805 805
731 733 734 740 758 757 747 735 730 730 738 732 736 740 748 756 761 765 766 768 770 770 775 775 776 781 784 786 787 790 791 793 795 796 796 795 797 799 799 799 799 800 801 801 801 802 803 803 804 805 805 806 806 805
727 726 726 733 757 758 750 734 729 730 726 730 735 736 737 745 754 761 765 766 767 766 770 775 779 783 786 788 790 793 794 796 797 799 800 801 801 802 801 800 801 802 802 802 802 802 803 804 804 805 805 806 806 805